Time,TemperatureF,DewpointF,PressureIn,WindDirection,WindDirectionDegrees,WindSpeedMPH,WindSpeedGustMPH,Humidity,HourlyPrecipIn,Conditions,Clouds,dailyrainin,SolarRadiationWatts/m^2,SoftwareType,DateUTC
2013-03-24 00:02:00,35.0,19.0,-100.00,East,90,6.0,11.0,51,0.00,,,0.00,175.000000,,2013-03-24 00:02:00,
2013-03-24 00:12:00,31.0,18.0,-100.00,ESE,114,4.0,12.0,59,0.00,,,-99.99,54.000000,,2013-03-24 00:12:00,
2013-03-24 00:33:00,31.0,18.0,-100.00,ESE,114,4.0,12.0,59,0.00,,,-99.99,54.000000,,2013-03-24 00:33:00,
2013-03-24 00:42:00,31.0,18.0,-100.00,ESE,114,4.0,12.0,59,0.00,,,-99.99,54.000000,,2013-03-24 00:42:00,
2013-03-24 00:53:00,31.0,18.0,-100.00,ESE,114,4.0,12.0,59,0.00,,,-99.99,54.000000,,2013-03-24 00:53:00,
2013-03-24 01:02:00,31.0,18.0,-100.00,ESE,114,4.0,12.0,59,0.00,,,-99.99,54.000000,,2013-03-24 01:02:00,
2013-03-24 01:12:00,29.0,21.0,-100.00,ENE,61,2.0,6.0,72,0.00,,,0.00,0.000000,,2013-03-24 01:12:00,
2013-03-24 01:33:00,29.0,21.0,-100.00,ENE,61,2.0,6.0,72,0.00,,,0.00,0.000000,,2013-03-24 01:33:00,
2013-03-24 01:43:00,29.0,21.0,-100.00,ENE,61,2.0,6.0,72,0.00,,,0.00,0.000000,,2013-03-24 01:43:00,
2013-03-24 01:53:00,29.0,21.0,-100.00,ENE,61,2.0,6.0,72,0.00,,,0.00,0.000000,,2013-03-24 01:53:00,
2013-03-24 02:03:00,29.0,21.0,-100.00,ENE,61,2.0,6.0,72,0.00,,,0.00,0.000000,,2013-03-24 02:03:00,
2013-03-24 02:12:00,26.0,21.0,-100.00,SSE,149,0.0,4.0,80,0.00,,,0.00,0.000000,,2013-03-24 02:12:00,
2013-03-24 02:43:00,26.0,21.0,-100.00,SSE,149,0.0,4.0,80,0.00,,,0.00,0.000000,,2013-03-24 02:43:00,
2013-03-24 02:52:00,26.0,21.0,-100.00,SSE,149,0.0,4.0,80,0.00,,,0.00,0.000000,,2013-03-24 02:52:00,
2013-03-24 03:02:00,26.0,21.0,-100.00,SSE,149,0.0,4.0,80,0.00,,,0.00,0.000000,,2013-03-24 03:02:00,
2013-03-24 03:12:00,26.0,22.0,-100.00,NNE,18,1.0,2.0,85,0.00,,,0.00,0.000000,,2013-03-24 03:12:00,
2013-03-24 03:33:00,26.0,22.0,-100.00,NNE,18,1.0,2.0,85,0.00,,,0.00,0.000000,,2013-03-24 03:33:00,
2013-03-24 03:43:00,26.0,22.0,-100.00,NNE,18,1.0,2.0,85,0.00,,,0.00,0.000000,,2013-03-24 03:43:00,
2013-03-24 03:53:00,26.0,22.0,-100.00,NNE,18,1.0,2.0,85,0.00,,,0.00,0.000000,,2013-03-24 03:53:00,
2013-03-24 04:03:00,26.0,22.0,-100.00,NNE,18,1.0,2.0,85,0.00,,,0.00,0.000000,,2013-03-24 04:03:00,
2013-03-24 04:12:00,29.0,24.0,-100.00,ENE,67,4.0,7.0,82,0.00,,,0.00,0.000000,,2013-03-24 04:12:00,
2013-03-24 04:33:00,29.0,24.0,-100.00,ENE,67,4.0,7.0,82,0.00,,,0.00,0.000000,,2013-03-24 04:33:00,
2013-03-24 04:43:00,29.0,24.0,-100.00,ENE,67,4.0,7.0,82,0.00,,,0.00,0.000000,,2013-03-24 04:43:00,
2013-03-24 04:53:00,29.0,24.0,-100.00,ENE,67,4.0,7.0,82,0.00,,,0.00,0.000000,,2013-03-24 04:53:00,
2013-03-24 05:02:00,29.0,24.0,-100.00,ENE,67,4.0,7.0,82,0.00,,,0.00,0.000000,,2013-03-24 05:02:00,
2013-03-24 05:12:00,29.0,22.0,-100.00,NNE,21,2.0,5.0,75,0.00,,,0.00,0.000000,,2013-03-24 05:12:00,
2013-03-24 05:33:00,29.0,22.0,-100.00,NNE,21,2.0,5.0,75,0.00,,,0.00,0.000000,,2013-03-24 05:33:00,
2013-03-24 05:43:00,29.0,22.0,-100.00,NNE,21,2.0,5.0,75,0.00,,,0.00,0.000000,,2013-03-24 05:43:00,
2013-03-24 05:52:00,29.0,22.0,-100.00,NNE,21,2.0,5.0,75,0.00,,,0.00,0.000000,,2013-03-24 05:52:00,
2013-03-24 06:02:00,29.0,22.0,-100.00,NNE,21,2.0,5.0,75,0.00,,,0.00,0.000000,,2013-03-24 06:02:00,
2013-03-24 06:12:00,29.0,22.0,-100.00,ENE,63,3.0,7.0,74,0.00,,,0.00,0.000000,,2013-03-24 06:12:00,
2013-03-24 06:32:00,29.0,22.0,-100.00,ENE,63,3.0,7.0,74,0.00,,,0.00,0.000000,,2013-03-24 06:32:00,
2013-03-24 06:42:00,29.0,22.0,-100.00,ENE,63,3.0,7.0,74,0.00,,,0.00,0.000000,,2013-03-24 06:42:00,
2013-03-24 06:52:00,29.0,22.0,-100.00,ENE,63,3.0,7.0,74,0.00,,,0.00,0.000000,,2013-03-24 06:52:00,
2013-03-24 07:02:00,29.0,22.0,-100.00,ENE,63,3.0,7.0,74,0.00,,,0.00,0.000000,,2013-03-24 07:02:00,
2013-03-24 07:12:00,29.0,20.0,-100.00,ENE,77,2.0,7.0,70,0.00,,,0.00,0.000000,,2013-03-24 07:12:00,
2013-03-24 07:32:00,29.0,20.0,-100.00,ENE,77,2.0,7.0,70,0.00,,,0.00,0.000000,,2013-03-24 07:32:00,
2013-03-24 07:42:00,29.0,20.0,-100.00,ENE,77,2.0,7.0,70,0.00,,,0.00,0.000000,,2013-03-24 07:42:00,
2013-03-24 07:52:00,29.0,20.0,-100.00,ENE,77,2.0,7.0,70,0.00,,,0.00,0.000000,,2013-03-24 07:52:00,
2013-03-24 08:03:00,29.0,20.0,-100.00,ENE,77,2.0,7.0,70,0.00,,,0.00,0.000000,,2013-03-24 08:03:00,
2013-03-24 08:12:00,29.0,21.0,-100.00,NNE,32,2.0,4.0,73,0.00,,,0.00,0.000000,,2013-03-24 08:12:00,
2013-03-24 08:32:00,29.0,21.0,-100.00,NNE,32,2.0,4.0,73,0.00,,,0.00,0.000000,,2013-03-24 08:32:00,
2013-03-24 08:42:00,29.0,21.0,-100.00,NNE,32,2.0,4.0,73,0.00,,,0.00,0.000000,,2013-03-24 08:42:00,
2013-03-24 08:52:00,29.0,21.0,-100.00,NNE,32,2.0,4.0,73,0.00,,,0.00,0.000000,,2013-03-24 08:52:00,
2013-03-24 09:02:00,29.0,21.0,-100.00,NNE,32,2.0,4.0,73,0.00,,,0.00,0.000000,,2013-03-24 09:02:00,
2013-03-24 09:12:00,29.0,21.0,-100.00,NNE,20,2.0,5.0,73,0.00,,,0.00,0.000000,,2013-03-24 09:12:00,
2013-03-24 09:33:00,29.0,21.0,-100.00,NNE,20,2.0,5.0,73,0.00,,,0.00,0.000000,,2013-03-24 09:33:00,
2013-03-24 09:43:00,29.0,21.0,-100.00,NNE,20,2.0,5.0,73,0.00,,,0.00,0.000000,,2013-03-24 09:43:00,
2013-03-24 09:52:00,29.0,21.0,-100.00,NNE,20,2.0,5.0,73,0.00,,,0.00,0.000000,,2013-03-24 09:52:00,
2013-03-24 10:03:00,29.0,21.0,-100.00,NNE,20,2.0,5.0,73,0.00,,,0.00,0.000000,,2013-03-24 10:03:00,
2013-03-24 10:12:00,29.0,21.0,-100.00,NE,36,4.0,7.0,73,0.00,,,0.00,0.000000,,2013-03-24 10:12:00,
2013-03-24 10:42:00,29.0,21.0,-100.00,NE,36,4.0,7.0,73,0.00,,,0.00,0.000000,,2013-03-24 10:42:00,
2013-03-24 10:52:00,29.0,21.0,-100.00,NE,36,4.0,7.0,73,0.00,,,0.00,0.000000,,2013-03-24 10:52:00,
2013-03-24 11:03:00,29.0,21.0,-100.00,NE,36,4.0,7.0,73,0.00,,,0.00,0.000000,,2013-03-24 11:03:00,
2013-03-24 11:12:00,29.0,22.0,-100.00,NE,46,4.0,8.0,76,0.00,,,0.00,0.000000,,2013-03-24 11:12:00,
2013-03-24 11:33:00,29.0,22.0,-100.00,NE,46,4.0,8.0,76,0.00,,,0.00,0.000000,,2013-03-24 11:33:00,
2013-03-24 11:42:00,29.0,22.0,-100.00,NE,46,4.0,8.0,76,0.00,,,0.00,0.000000,,2013-03-24 11:42:00,
2013-03-24 11:52:00,29.0,22.0,-100.00,NE,46,4.0,8.0,76,0.00,,,0.00,0.000000,,2013-03-24 11:52:00,
2013-03-24 12:02:00,29.0,22.0,-100.00,NE,46,4.0,8.0,76,0.00,,,0.00,0.000000,,2013-03-24 12:02:00,
2013-03-24 12:12:00,29.0,23.0,-100.00,ENE,60,6.0,10.0,79,0.00,,,0.00,1.000000,,2013-03-24 12:12:00,
2013-03-24 12:32:00,29.0,23.0,-100.00,ENE,60,6.0,10.0,79,0.00,,,0.00,1.000000,,2013-03-24 12:32:00,
2013-03-24 12:42:00,29.0,23.0,-100.00,ENE,60,6.0,10.0,79,0.00,,,0.00,1.000000,,2013-03-24 12:42:00,
2013-03-24 12:52:00,29.0,23.0,-100.00,ENE,60,6.0,10.0,79,0.00,,,0.00,1.000000,,2013-03-24 12:52:00,
2013-03-24 13:02:00,29.0,23.0,-100.00,ENE,60,6.0,10.0,79,0.00,,,0.00,1.000000,,2013-03-24 13:02:00,
2013-03-24 13:12:00,29.0,22.0,-100.00,NE,54,7.0,13.0,76,0.00,,,0.00,20.000000,,2013-03-24 13:12:00,
2013-03-24 13:43:00,29.0,22.0,-100.00,NE,54,7.0,13.0,76,0.00,,,0.00,20.000000,,2013-03-24 13:43:00,
2013-03-24 13:52:00,29.0,22.0,-100.00,NE,54,7.0,13.0,76,0.00,,,0.00,20.000000,,2013-03-24 13:52:00,
2013-03-24 14:02:00,29.0,22.0,-100.00,NE,54,7.0,13.0,76,0.00,,,0.00,20.000000,,2013-03-24 14:02:00,
2013-03-24 14:12:00,29.0,22.0,-100.00,NE,54,9.0,17.0,76,0.00,,,0.00,61.000000,,2013-03-24 14:12:00,
2013-03-24 14:33:00,29.0,22.0,-100.00,NE,54,9.0,17.0,76,0.00,,,0.00,61.000000,,2013-03-24 14:33:00,
2013-03-24 14:43:00,29.0,22.0,-100.00,NE,54,9.0,17.0,76,0.00,,,0.00,61.000000,,2013-03-24 14:43:00,
2013-03-24 14:52:00,29.0,22.0,-100.00,NE,54,9.0,17.0,76,0.00,,,0.00,61.000000,,2013-03-24 14:52:00,
2013-03-24 15:02:00,29.0,22.0,-100.00,NE,54,9.0,17.0,76,0.00,,,0.00,61.000000,,2013-03-24 15:02:00,
2013-03-24 15:12:00,29.0,21.0,-100.00,NE,55,8.0,17.0,73,0.00,,,0.00,119.000000,,2013-03-24 15:12:00,
2013-03-24 15:43:00,29.0,21.0,-100.00,NE,55,8.0,17.0,73,0.00,,,0.00,119.000000,,2013-03-24 15:43:00,
2013-03-24 15:53:00,29.0,21.0,-100.00,NE,55,8.0,17.0,73,0.00,,,0.00,119.000000,,2013-03-24 15:53:00,
2013-03-24 16:03:00,29.0,21.0,-100.00,NE,55,8.0,17.0,73,0.00,,,0.00,119.000000,,2013-03-24 16:03:00,
2013-03-24 16:12:00,30.0,22.0,-100.00,NE,54,8.0,17.0,72,0.00,,,0.00,198.000000,,2013-03-24 16:12:00,
2013-03-24 16:43:00,30.0,22.0,-100.00,NE,54,8.0,17.0,72,0.00,,,0.00,198.000000,,2013-03-24 16:43:00,
2013-03-24 16:52:00,30.0,22.0,-100.00,NE,54,8.0,17.0,72,0.00,,,0.00,198.000000,,2013-03-24 16:52:00,
2013-03-24 17:02:00,30.0,22.0,-100.00,NE,54,8.0,17.0,72,0.00,,,0.00,198.000000,,2013-03-24 17:02:00,
2013-03-24 17:12:00,30.0,22.0,-100.00,NE,48,9.0,16.0,72,0.00,,,0.00,248.000000,,2013-03-24 17:12:00,
2013-03-24 17:33:00,30.0,22.0,-100.00,NE,48,9.0,16.0,72,0.00,,,0.00,248.000000,,2013-03-24 17:33:00,
2013-03-24 17:43:00,30.0,22.0,-100.00,NE,48,9.0,16.0,72,0.00,,,0.00,248.000000,,2013-03-24 17:43:00,
2013-03-24 17:53:00,30.0,22.0,-100.00,NE,48,9.0,16.0,72,0.00,,,0.00,248.000000,,2013-03-24 17:53:00,
2013-03-24 18:03:00,30.0,22.0,-100.00,NE,48,9.0,16.0,72,0.00,,,0.00,248.000000,,2013-03-24 18:03:00,
2013-03-24 18:12:00,33.0,24.0,-100.00,NE,51,6.0,15.0,69,0.00,,,0.00,300.000000,,2013-03-24 18:12:00,
2013-03-24 18:33:00,33.0,24.0,-100.00,NE,51,6.0,15.0,69,0.00,,,0.00,300.000000,,2013-03-24 18:33:00,
2013-03-24 18:43:00,33.0,24.0,-100.00,NE,51,6.0,15.0,69,0.00,,,0.00,300.000000,,2013-03-24 18:43:00,
2013-03-24 18:52:00,33.0,24.0,-100.00,NE,51,6.0,15.0,69,0.00,,,0.00,300.000000,,2013-03-24 18:52:00,
2013-03-24 19:02:00,33.0,24.0,-100.00,NE,51,6.0,15.0,69,0.00,,,0.00,300.000000,,2013-03-24 19:02:00,
2013-03-24 19:12:00,34.0,22.0,-100.00,ENE,58,8.0,17.0,62,0.00,,,0.00,374.000000,,2013-03-24 19:12:00,
2013-03-24 19:32:00,34.0,22.0,-100.00,ENE,58,8.0,17.0,62,0.00,,,0.00,374.000000,,2013-03-24 19:32:00,
2013-03-24 19:43:00,34.0,22.0,-100.00,ENE,58,8.0,17.0,62,0.00,,,0.00,374.000000,,2013-03-24 19:43:00,
2013-03-24 19:53:00,34.0,22.0,-100.00,ENE,58,8.0,17.0,62,0.00,,,0.00,374.000000,,2013-03-24 19:53:00,
2013-03-24 20:03:00,34.0,22.0,-100.00,ENE,58,8.0,17.0,62,0.00,,,0.00,374.000000,,2013-03-24 20:03:00,
2013-03-24 20:12:00,33.0,22.0,-100.00,NNE,28,8.0,17.0,63,0.00,,,0.00,255.000000,,2013-03-24 20:12:00,
2013-03-24 20:43:00,33.0,22.0,-100.00,NNE,28,8.0,17.0,63,0.00,,,0.00,255.000000,,2013-03-24 20:43:00,
2013-03-24 20:53:00,33.0,22.0,-100.00,NNE,28,8.0,17.0,63,0.00,,,0.00,255.000000,,2013-03-24 20:53:00,
2013-03-24 21:02:00,33.0,22.0,-100.00,NNE,28,8.0,17.0,63,0.00,,,0.00,255.000000,,2013-03-24 21:02:00,
2013-03-24 21:12:00,34.0,22.0,-100.00,NNE,28,6.0,19.0,61,0.00,,,0.00,216.000000,,2013-03-24 21:12:00,
2013-03-24 21:33:00,34.0,22.0,-100.00,NNE,28,6.0,19.0,61,0.00,,,0.00,216.000000,,2013-03-24 21:33:00,
2013-03-24 21:43:00,34.0,22.0,-100.00,NNE,28,6.0,19.0,61,0.00,,,0.00,216.000000,,2013-03-24 21:43:00,
2013-03-24 21:53:00,34.0,22.0,-100.00,NNE,28,6.0,19.0,61,0.00,,,0.00,216.000000,,2013-03-24 21:53:00,
2013-03-24 22:03:00,34.0,22.0,-100.00,NNE,28,6.0,19.0,61,0.00,,,0.00,216.000000,,2013-03-24 22:03:00,
2013-03-24 22:12:00,33.0,21.0,-100.00,NE,42,8.0,19.0,60,0.00,,,0.00,115.000000,,2013-03-24 22:12:00,
2013-03-24 22:33:00,33.0,21.0,-100.00,NE,42,8.0,19.0,60,0.00,,,0.00,115.000000,,2013-03-24 22:33:00,
2013-03-24 22:43:00,33.0,21.0,-100.00,NE,42,8.0,19.0,60,0.00,,,0.00,115.000000,,2013-03-24 22:43:00,
2013-03-24 22:53:00,33.0,21.0,-100.00,NE,42,8.0,19.0,60,0.00,,,0.00,115.000000,,2013-03-24 22:53:00,
2013-03-24 23:03:00,33.0,21.0,-100.00,NE,42,8.0,19.0,60,0.00,,,0.00,115.000000,,2013-03-24 23:03:00,
2013-03-24 23:12:00,33.0,19.0,-100.00,NE,43,6.0,16.0,57,0.00,,,0.00,82.000000,,2013-03-24 23:12:00,
2013-03-24 23:32:00,33.0,19.0,-100.00,NE,43,6.0,16.0,57,0.00,,,0.00,82.000000,,2013-03-24 23:32:00,
2013-03-24 23:42:00,33.0,19.0,-100.00,NE,43,6.0,16.0,57,0.00,,,0.00,82.000000,,2013-03-24 23:42:00,
2013-03-24 23:53:00,33.0,19.0,-100.00,NE,43,6.0,16.0,57,0.00,,,0.00,82.000000,,2013-03-24 23:53:00,